Location: ????? ??????
(37.8317°N, 23.8750°E)
Time: 13:46:03
(UTC+00:00)

SAR-Lupe-4 - Pass Details

Date: 20 January 2021
Orbit: 480 x 484 km, 98.2° (Epoch: 02 March)

Event Time Altitude Azimuth Distance (km) Brightness Sun altitude
Exits shadow 16:56:44 11° 13° (NNE) 1,621 6.0 -16.1°
Maximum altitude 17:00:12 90° 93° (E) 487 3.4 -16.8°
Drops below altitude 10° 17:03:45 10° 194° (SSW) 1,651 6.6 -17.5°
Sets 17:05:48 0° 194° (SSW) 2,525 7.6 -17.9°
